Location: *
(60.1759°S, 155.0663°W)
Time: 16:47:09
(UTC+00:00)

USA 229 DEB - Pass Details

Date: 17 September 2019
Orbit: 996 x 1216 km, 63.4° (Epoch: 08 October)

Event Time Altitude Azimuth Distance (km) Brightness Sun altitude
Rises 13:58:06 0° 234° (SW) 3,981 6.5 -18.2°
Reaches altitude 10° 14:01:01 10° 241° (WSW) 2,984 5.7 -17.9°
Maximum altitude 14:07:25 39° 306° (NW) 1,556 4.1 -17.2°
Drops below altitude 10° 14:13:31 10° 12° (NNE) 2,832 5.8 -16.5°
Sets 14:16:14 0° 19° (NNE) 3,757 6.5 -16.2°
